Location: Broad Channel
(40.6032°N, 73.8204°W)
Time: 05:14:03
(UTC+00:00)

Daily predictions for brighter satellites

Satellite Brightness Start Highest point End
(mag) Time Altitude Azimuth Time Altitude Azimuth Time Altitude Azimuth
Cosmos 1805 3.5 00:01:07 10° SSW 00:05:01 76° W 00:08:56 10° N
H-2A R/B 2.3 00:01:29 10° SE 00:06:37 50° ENE 00:11:39 10° N
STARLINK-1066 3.7 00:03:43 10° NW 00:06:42 37° NNE 00:08:48 16° E
STARLINK-1081 3.7 00:04:11 10° NW 00:07:07 36° NNE 00:09:10 16° E
STARLINK-1070 3.7 00:04:38 10° NW 00:07:34 37° NNE 00:09:36 17° E
STARLINK-1069 3.7 00:05:03 10° NW 00:08:01 37° NNE 00:10:04 17° E
STARLINK-1085 3.7 00:05:29 10° NW 00:08:27 38° NNE 00:10:30 17° E
STARLINK-1244 4.0 00:04:28 10° WSW 00:08:29 64° NW 00:12:32 10° NE
STARLINK-1086 3.7 00:05:59 10° NW 00:08:56 38° NNE 00:10:55 17° E
STARLINK-1095 3.6 00:06:25 10° NW 00:09:23 38° NNE 00:11:20 18° E
Meteor 2-16 Rocket 4.5 00:03:14 10° N 00:09:26 90° W 00:15:35 10° S
STARLINK-1077 3.6 00:06:51 10° NW 00:09:49 38° NNE 00:11:45 18° E
STARLINK-1075 3.6 00:07:20 10° NW 00:10:17 39° NNE 00:12:12 18° E
STARLINK-1093 3.6 00:07:43 10° NW 00:10:44 39° NNE 00:12:41 18° E
STARLINK-1074 3.6 00:08:10 10° NW 00:11:10 40° NNE 00:13:06 18° E
STARLINK-1087 3.6 00:08:40 10° NW 00:11:38 40° NNE 00:13:30 19° E
STARLINK-1108 4.5 00:08:12 10° NW 00:11:57 35° NNE 00:14:40 16° E
STARLINK-1088 3.6 00:09:07 10° NW 00:12:06 40° NNE 00:13:56 19° E
STARLINK-1115 3.6 00:09:32 10° NW 00:12:33 41° NNE 00:14:25 19° E
STARLINK-1076 3.5 00:09:58 10° NW 00:12:59 41° NE 00:14:50 19° E
STARLINK-1138 4.2 00:09:10 10° WSW 00:13:11 59° NW 00:17:14 10° NE
STARLINK-1092 3.5 00:10:26 10° NW 00:13:27 42° NE 00:15:17 20° E
STARLINK-1080 3.5 00:10:54 10° NW 00:13:54 42° NNE 00:15:40 20° E
STARLINK-1090 3.5 00:11:20 10° NW 00:14:20 42° NE 00:16:06 20° E
STARLINK-1089 3.5 00:11:48 10° NW 00:14:48 42° NE 00:16:32 21° E
STARLINK-1107 3.5 00:12:15 10° NW 00:15:15 43° NE 00:16:58 21° E
STARLINK-1071 4.4 00:12:43 10° NW 00:16:31 38° NNE 00:19:03 18° E
STARLINK-1143 4.3 00:14:02 10° WSW 00:18:01 54° NW 00:22:02 10° NE
STARLINK-1124 4.4 00:14:46 10° NW 00:18:41 40° NNE 00:21:13 19° E
CZ-4 R/B 4.3 00:18:05 10° SW 00:20:52 19° W 00:23:39 10° NW
STARLINK-1110 4.3 00:17:15 10° NW 00:21:05 40° NNE 00:23:25 20° E
Cosmos 883 Rocket 4.4 00:15:59 10° S 00:22:07 71° E 00:28:20 10° NNE
Cosmos 2297 3.9 00:16:50 10° NNW 00:22:23 52° ENE 00:26:53 15° SE
ISS -1.2 00:23:03 10° NNW 00:24:52 14° N 00:26:40 10° NE
Cosmos 2237 Rocket 3.6 00:19:41 10° SW 00:24:59 41° WNW 00:30:18 10° N
Cosmos 1470 3.0 00:21:52 10° SSE 00:25:31 43° E 00:29:14 10° NNE
Cosmos 1302 Rocket 4.4 00:21:58 10° N 00:27:03 45° ENE 00:30:33 19° SE
Meteor 2-5 Rocket 4.2 00:22:11 10° NNW 00:27:46 64° W 00:33:14 10° S
Cosmos 1269 Rocket 4.1 00:22:37 10° SSW 00:27:54 86° WNW 00:33:14 10° NNE
FREGAT/IRIS 2.2 00:26:23 17° SSE 00:28:21 76° ENE 00:31:05 10° N
Abrixas rocket 2.3 00:25:38 10° SW 00:28:27 42° SE 00:29:13 34° ESE
Cosmos 1745 Rocket 4.4 00:22:46 10° NNW 00:29:02 69° W 00:35:12 10° S
STARLINK-1122 4.1 00:26:26 10° NW 00:30:22 46° NNE 00:32:18 26° E
H-2A R/B 3.8 00:19:32 10° W 00:32:02 25° SW 00:35:36 11° SSE
SJ-6B 2.9 00:28:51 14° SSE 00:32:13 59° ENE 00:36:17 10° N
Cosmos 2278 Rocket 3.7 00:29:04 10° NW 00:34:13 36° WSW 00:39:20 10° S
CZ-2C R/B 3.3 00:29:46 10° NE 00:34:18 30° E 00:37:14 18° SE
Cosmos 1758 3.4 00:30:39 10° S 00:34:37 53° E 00:38:37 10° NNE
Cosmos 2251 Rocket 4.3 00:30:27 10° SSE 00:35:01 30° E 00:39:38 10° NE
STARLINK-1126 4.0 00:31:05 10° NW 00:35:03 50° NE 00:36:46 29° E
ARGOS 3.1 00:31:55 10° SSE 00:37:19 80° ENE 00:42:44 10° N
Resurs 1-3 4.3 00:36:53 27° ESE 00:38:20 34° ENE 00:42:19 10° N
SL-08 RB Rocket 3.7 00:35:12 17° SSE 00:38:29 58° ENE 00:42:57 10° N
USA 234 3.2 00:32:00 10° NE 00:38:35 87° SE 00:45:08 10° SW
SL-24 R/B 4.2 00:35:10 10° NNE 00:39:31 47° E 00:43:13 11° S
MONITOR-E 3.9 00:38:13 25° S 00:39:35 73° WSW 00:42:14 10° NNW
STARLINK-1082 3.8 00:35:38 10° NW 00:39:37 54° NE 00:41:10 32° E
Meteor 1-24 Rocket 4.0 00:36:46 10° NNW 00:42:14 65° W 00:47:30 10° S
STARLINK-1100 3.7 00:40:13 10° NW 00:44:14 58° NE 00:45:35 37° E
MOS 1 4.3 00:39:33 10° SSE 00:45:12 83° WSW 00:50:54 10° NNW
Resurs 01 Rocket 2.5 00:45:45 29° E 00:46:15 29° ENE 00:50:04 10° N
Cosmos 1726 4.3 00:49:48 14° NE 00:49:48 14° NE 00:50:36 10° NE
STARLINK-1083 3.6 00:44:52 10° NW 00:48:54 63° NE 00:50:04 42° E
Cosmos 304 Rocket 4.4 00:44:27 10° NNW 00:49:08 55° WSW 00:53:46 10° S
MetOp-A 4.2 00:46:32 24° SE 00:49:41 57° ENE 00:54:56 10° N
BREEZE-M DEB (TANK) 3.3 00:44:41 10° WNW 00:52:58 47° SW 00:54:25 28° S
STARLINK-1125 3.6 00:49:28 10° NW 00:53:32 69° NE 00:54:31 47° E
SL-14 R/B 3.8 00:49:47 10° NNW 00:53:47 61° W 00:57:34 11° S
CZ-2C R/B 3.3 00:49:37 10° S 00:54:43 66° WSW 00:59:36 10° NNW
IRIDIUM 104 4.4 00:50:40 10° N 00:55:48 53° E 00:57:59 32° SE
STARLINK-1109 3.5 00:53:49 10° NW 00:57:54 74° NE 00:58:43 54° ESE
Cosmos 2315 Rocket 4.2 00:51:56 10° SSW 00:58:13 77° W 01:04:36 10° N
USA 186 3.3 00:56:16 10° SSW 00:59:30 38° W 01:02:43 10° NNW
Cosmos 2369 Rocket 2.9 00:57:04 10° N 01:02:16 35° ENE 01:03:16 32° E
STARLINK-1091 3.5 00:58:32 10° NW 01:02:37 81° NE 01:03:15 62° ESE
IRIDIUM 114 4.2 00:59:46 10° N 01:04:58 66° E 01:07:09 35° SSE
SPOT 3 Rocket 3.5 01:02:40 25° SSE 01:05:47 87° ENE 01:11:02 10° NNW
Meteor 2-15 Rocket 4.4 01:05:50 10° S 01:11:55 83° W 01:18:01 10° N
MOS 1 Rocket 3.5 01:07:34 10° NNE 01:12:50 73° E 01:17:07 16° S
IRIDIUM 103 4.2 01:08:55 10° N 01:14:10 81° E 01:16:18 37° S
Cosmos 292 Rocket 4.0 01:10:03 10° N 01:14:41 48° ENE 01:14:42 48° ENE
STARLINK-1072 3.4 01:11:00 10° NW 01:15:01 79° SW 01:15:08 78° SSW
Cosmos 1626 3.9 01:12:41 10° NNW 01:15:58 30° W 01:18:49 12° SSW
Cosmos 1953 2.1 01:16:15 85° SSE 01:16:21 88° E 01:20:19 10° N
Meteor 1-21 Rocket 4.0 01:11:40 10° N 01:17:15 75° E 01:18:56 46° SSE
STARLINK-1096 3.6 01:15:30 10° NW 01:19:27 73° SW 01:19:27 73° SW
Nadezhda 1 Rocket 4.2 01:19:54 46° ESE 01:20:37 48° E 01:26:43 10° NNE
Aureole 2 Rocket 4.2 01:17:43 10° N 01:19:22 23° NNE 01:19:22 23° NNE
Cosmos 1943 4.2 01:24:21 30° NE 01:24:21 30° NE 01:27:28 10° NE
STARLINK-1079 3.8 01:20:03 10° NW 01:23:49 64° WSW 01:23:49 64° WSW
Cosmos 2084 Rocket 4.2 01:21:06 10° NNW 01:24:57 43° NNE 01:24:57 43° NNE
Cosmos 1943 Rocket 2.0 01:21:18 10° NNW 01:26:50 70° ENE 01:27:31 63° ESE
STARLINK-1116 4.0 01:24:32 10° WNW 01:28:08 57° WSW 01:28:08 57° WSW
Cosmos 1602 Rocket 4.4 01:26:52 10° NNW 01:31:10 49° W 01:32:40 34° SW
Spot 2 Rocket 4.0 01:33:40 45° NE 01:33:40 45° NE 01:37:52 10° N
Meteor 2-10 4.0 01:31:13 44° S 01:32:58 89° E 01:38:30 10° N
BREEZE-M DEB (TANK) 3.6 01:30:32 10° W 01:34:41 30° NNW 01:34:45 30° NNW
ATLAS 5 CENTAUR R/B 4.5 01:31:03 10° SSW 02:11:45 - E 01:36:57 27° SSE
SL-16 R/B 4.1 01:34:10 10° WSW 01:39:03 29° NW 01:43:57 10° N
Cosmos 2074 Rocket 3.9 01:33:00 10° N 01:39:18 90° S 01:40:57 53° S
Terra 4.2 01:46:14 13° NNE 01:46:14 13° NNE 01:47:00 10° NNE
H-2A R/B 4.4 01:42:25 10° SW 01:46:15 20° W 01:50:04 10° NW
Cosmos 1825 Rocket 4.4 01:46:08 10° N 01:49:16 45° NNW 01:49:16 45° NNW
Cosmos 1610 Rocket 4.3 01:47:10 10° N 01:53:16 75° ENE 01:53:16 75° ENE
NOSS 3-3 (A) 3.9 01:47:57 10° SW 01:53:43 78° NW 02:00:13 10° NNE
NOSS 3-3 (C) 3.9 01:48:03 10° SW 01:53:49 79° NW 02:00:19 10° NNE
Cosmos 1603 3.9 01:54:50 10° SSW 02:00:26 67° WNW 02:06:03 10° NNE
Meteor 1-16 Rocket 4.5 01:59:53 55° WSW 02:00:35 61° WNW 02:05:58 10° N
ISS -0.7 01:59:20 10° NW 02:00:03 15° NNW 02:00:03 15° NNW
MetOp-B 4.4 02:05:17 67° NW 02:05:17 67° NW 02:10:03 10° NNW
Aureole 1 Rocket 4.5 02:14:44 64° NE 02:14:44 64° NE 02:20:32 10° NNE
CZ-2C R/B 4.2 02:10:01 10° N 02:14:33 32° WNW 02:18:46 11° SW
ATLAS 2AS CENTAUR R/B 3.3 02:13:02 10° NNW 02:20:00 46° NE 02:20:00 46° NE
COSMOS 2455 4.5 02:16:56 10° N 02:20:35 23° NNE 02:20:35 23° NNE
Resurs 01 Rocket 3.7 02:23:19 24° W 02:23:19 24° W 02:26:19 10° NW
Cosmos 2369 Rocket 3.7 02:41:10 10° NW 02:45:05 31° W 02:45:05 31° W
CZ-4C R/B 4.4 05:03:29 10° NNW 05:07:10 29° N 05:07:10 29° N
SL-16 R/B 4.2 06:21:56 27° N 06:21:56 27° N 06:24:36 10° N
CZ-2D R/B 4.2 06:37:39 10° NNE 06:39:35 23° NNE 06:39:35 23° NNE
Resurs 1-4 Rocket 4.3 06:41:35 10° NNE 06:43:14 21° NNE 06:43:14 21° NNE
ADEOS II 4.1 06:47:35 10° NNE 06:49:56 24° NE 06:49:56 24° NE
USA 267 4.0 06:46:59 10° NE 06:51:29 48° NE 06:51:29 48° NE
SJ 16-02 4.2 07:06:35 15° ENE 07:06:35 15° ENE 07:07:39 10° NE
Cosmos 2333 Rocket 4.3 07:01:38 10° N 07:06:07 24° NE 07:10:35 10° ESE
Cosmos 2360 Rocket 4.3 07:15:05 10° NNW 07:16:26 18° NNW 07:16:26 18° NNW
USA 234 3.8 07:20:10 10° ESE 07:26:29 54° NE 07:32:48 10° NW
SL-4 R/B 4.4 07:42:28 21° NE 07:42:28 21° NE 07:44:30 10° E
CZ-4B R/B 4.4 07:49:24 15° ENE 07:49:55 15° ENE 07:52:01 10° NNE
Cosmos 2297 Rocket 4.5 07:51:51 10° SE 07:55:29 18° E 07:59:12 10° ENE
Cosmos 990 Rocket 4.1 08:08:41 70° NNE 08:08:41 70° NNE 08:13:15 10° NNE
Meteor 1-27 Rocket 3.7 08:09:08 72° NW 08:09:08 72° NW 08:14:25 10° N
COSMOS 2428 3.1 08:03:44 10° NNW 08:09:24 62° ENE 08:15:00 10° SE
Cosmos 158 Rocket 4.0 08:05:23 10° NNW 08:10:41 78° ENE 08:10:54 76° E
Spot 4 Rocket 4.2 08:06:15 10° N 08:10:46 66° NNW 08:10:46 66° NNW
Cosmos 1816 Rocket 4.4 08:10:41 71° SSW 08:11:24 82° W 08:17:49 10° N
Cosmos 2322 4.3 08:11:37 10° NNW 08:15:25 42° NW 08:15:25 42° NW
Geosat 4.0 08:14:04 10° NNE 08:19:07 76° ESE 08:19:32 70° SSE
BREEZE-M DEB (TANK) 3.6 08:13:20 10° NW 08:19:37 54° NNE 08:23:23 10° ESE
Tsikada Rocket 3.9 08:18:36 61° SSW 08:19:47 78° W 08:26:15 10° N
Cosmos 2227 Rocket 4.0 08:15:51 11° SSE 08:20:16 26° ESE 08:24:51 10° NE
Meteor 1-11 Rocket 3.9 08:16:09 10° NNW 08:21:27 57° WNW 08:21:27 57° WNW
CZ-2D R/B 4.4 08:19:54 10° NNW 08:20:55 12° NW 08:20:55 12° NW
Cosmos 2285 Rocket 4.2 08:22:31 50° WNW 08:22:45 50° WNW 08:28:57 10° N
Cosmos 2219 Rocket 2.1 08:19:25 10° NNW 08:25:04 88° ENE 08:30:39 10° SSE
Resurs 1-4 Rocket 4.4 08:24:17 10° NW 08:24:19 10° NW 08:24:19 10° NW
Cosmos 1703 Rocket 4.2 08:27:10 39° SE 08:28:29 54° E 08:32:52 10° NNE
ARIANE 5 R/B 3.3 08:23:45 10° N 08:27:44 36° NW 08:27:44 36° NW
STARLINK-1015 4.3 08:28:56 47° ESE 08:28:56 47° ESE 08:32:42 10° ENE
Cosmos 1634 Rocket 4.1 08:23:49 10° N 08:30:00 73° E 08:36:08 10° SSE
SeaSat 1 3.4 08:25:39 10° SE 08:30:22 48° ENE 08:35:07 10° NNW
ADEOS II 3.5 08:27:40 10° N 08:30:53 24° NW 08:30:53 24° NW
STARLINK-24 4.0 08:32:58 55° ESE 08:32:58 55° ESE 08:36:39 10° ENE
STARLINK-1016 4.0 08:33:45 54° SE 08:33:45 54° SE 08:37:44 10° ENE
STARLINK-1014 4.0 08:35:35 51° SE 08:35:35 51° SE 08:39:18 10° ENE
USA 267 4.4 08:30:23 10° NE 08:35:59 31° NNW 08:38:50 23° WNW
Cosmos 2034 Rocket 4.3 08:31:29 10° NNW 08:37:26 43° W 08:37:26 43° W
STARLINK-1010 3.6 08:38:02 75° SSE 08:38:06 75° SE 08:42:19 10° NE
STARLINK-1008 3.8 08:38:31 59° SSE 08:38:39 59° SE 08:42:44 10° ENE
CZ-2C R/B 3.6 08:34:58 10° N 08:37:58 41° NNW 08:37:58 41° NNW
BREEZE-M DEB (TANK) 2.7 08:41:57 51° SSE 08:42:05 52° SSE 08:44:33 10° ENE
SJ 16-02 2.6 08:43:35 27° NW 08:43:35 27° NW 08:46:28 10° N
STARLINK-1025 3.6 08:48:05 63° S 08:48:35 73° SE 08:52:43 10° NE
Cosmos 1908 Rocket 3.4 08:45:58 10° N 08:50:22 76° W 08:52:10 34° S
Cosmos 2333 Rocket 2.2 08:45:13 10° NNW 08:50:41 53° WSW 08:56:09 10° S
CZ-2C R/B 3.1 08:46:48 10° NNE 08:51:16 48° E 08:55:40 10° S
USA 238 DEB 4.4 08:46:58 15° S 08:52:14 49° ESE 08:58:46 10° NE
STARLINK-1302 4.5 08:53:14 25° N 08:53:14 25° N 08:54:51 10° NE
USA 238 4.4 08:47:02 15° S 08:52:22 49° ESE 08:58:52 10° NE
STARLINK-1273 4.4 08:54:24 25° N 08:54:24 25° N 08:56:04 10° NE
STARLINK-1017 3.6 08:52:53 60° SSW 08:53:34 80° SE 08:57:43 10° NE
Cosmos 405 4.3 08:54:58 27° NNW 08:54:58 27° NNW 08:57:04 10° N
Lacrosse 5 rocket 2.1 08:54:18 33° NW 08:54:21 33° NW 08:57:56 10° NNE
STARLINK-1288 4.4 08:55:27 25° N 08:55:27 25° N 08:57:10 10° NNE
STARLINK-81 3.5 08:56:15 59° SW 08:56:58 84° SE 09:01:00 10° NE
STARLINK-1304 4.3 08:58:58 26° N 08:58:58 26° N 09:00:49 10° NNE
STARLINK-54 3.4 08:58:04 58° WSW 08:58:49 86° NW 09:02:51 10° NE
STARLINK-77 3.4 08:59:26 55° SW 09:00:17 89° SE 09:04:20 10° NE
IDEFIX/ARIANE 42P 2.9 08:57:01 10° N 09:01:56 46° WNW 09:03:32 35° WSW
STARLINK-25 3.4 09:01:02 53° SW 09:01:57 89° NNW 09:05:59 10° NE
Okean 1-7 2.9 09:01:22 34° SSW 09:03:09 71° W 09:07:32 10° N
STARLINK-1281 4.3 09:03:37 25° NNW 09:03:37 25° NNW 09:05:37 10° NNE
STARLINK-71 3.4 09:02:51 51° WSW 09:03:47 78° NW 09:07:49 10° NE
STARLINK-79 3.4 09:04:12 49° WSW 09:05:14 83° NW 09:09:17 10° NE
deb Chang Zheng 4 4.1 09:02:21 10° N 09:06:19 37° WNW 09:06:49 36° W
STARLINK-78 3.4 09:05:50 47° WSW 09:06:56 80° NW 09:10:58 10° NE
STARLINK-1048 3.5 09:07:13 43° WSW 09:08:29 78° NW 09:12:38 10° NE
GPS 2-04 Rocket1 3.3 09:08:20 34° SSW 09:08:35 34° S 09:11:59 10° ESE
STARLINK-1316 4.5 09:09:09 19° NNW 09:09:09 19° NNW 09:10:36 10° NNE
STARLINK-57 3.5 09:07:32 45° WSW 09:08:41 74° NW 09:12:42 10° NE
STARLINK-1291 4.5 09:09:24 19° NNW 09:09:24 19° NNW 09:10:51 10° NNE
STARLINK-1257 4.5 09:09:28 19° NNW 09:09:28 19° NNW 09:10:56 10° NNE
STARLINK-1264 4.5 09:09:44 19° NNW 09:09:44 19° NNW 09:11:12 10° NNE
STARLINK-1256 4.5 09:09:51 19° NNW 09:09:51 19° NNW 09:11:20 10° NNE
USA 234 3.5 09:03:18 10° SSE 09:09:32 46° SW 09:15:46 10° WNW
STARLINK-1267 4.5 09:10:10 19° NNW 09:10:10 19° NNW 09:11:40 10° NNE
STARLINK-1213 4.5 09:10:19 19° NNW 09:10:19 19° NNW 09:11:49 10° NNE
STARLINK-49 3.5 09:08:58 43° WSW 09:10:12 76° NW 09:14:14 10° NE
STARLINK-1272 4.5 09:10:39 18° NNW 09:10:39 18° NNW 09:12:08 10° NNE
Cosmos 1515 3.8 09:07:08 14° S 09:10:17 72° E 09:14:05 10° NNE
STARLINK-1263 4.5 09:10:45 19° NNW 09:10:45 19° NNW 09:12:15 10° NNE
STARLINK-1207 4.5 09:10:54 19° NNW 09:10:54 19° NNW 09:12:25 10° NNE
STARLINK-1259 4.5 09:11:12 18° NNW 09:11:12 18° NNW 09:12:43 10° NNE
STARLINK-1266 4.5 09:11:16 19° NNW 09:11:16 19° NNW 09:12:47 10° NNE
STARLINK-1285 4.5 09:11:32 18° NNW 09:11:32 18° NNW 09:13:03 10° NNE
STARLINK-1284 4.5 09:11:35 18° NNW 09:11:35 18° NNW 09:13:07 10° NNE
STARLINK-1265 4.5 09:11:57 18° NNW 09:11:57 18° NNW 09:13:30 10° NNE
Cosmos 1743 2.7 09:07:57 10° NNW 09:11:47 57° W 09:14:53 15° S
STARLINK-1258 4.5 09:12:10 18° NNW 09:12:10 18° NNW 09:13:43 10° NNE
STARLINK-27 3.5 09:10:34 41° WSW 09:11:52 73° NW 09:15:54 10° NE
STARLINK-1296 4.5 09:12:25 18° NNW 09:12:25 18° NNW 09:13:58 10° NNE
STARLINK-1292 4.5 09:12:35 18° NNW 09:12:35 18° NNW 09:14:09 10° NNE
STARLINK-1260 4.5 09:12:45 18° NNW 09:12:45 18° NNW 09:14:19 10° NNE
STARLINK-1274 4.5 09:12:52 18° NNW 09:12:52 18° NNW 09:14:27 10° NNE
STARLINK-1312 4.5 09:12:53 19° NNW 09:12:53 19° NNW 09:14:34 10° NNE
STARLINK-1318 4.5 09:13:05 18° NNW 09:13:05 18° NNW 09:14:41 10° NNE
STARLINK-1023 3.7 09:11:21 38° WSW 09:12:49 67° NW 09:17:00 10° NE
STARLINK-1289 4.5 09:13:09 18° NNW 09:13:09 18° NNW 09:14:44 10° NNE
STARLINK-1275 4.5 09:13:29 18° NNW 09:13:29 18° NNW 09:15:04 10° NNE
STARLINK-1303 4.5 09:13:42 18° NNW 09:13:42 18° NNW 09:15:17 10° NNE
STARLINK-1049 3.6 09:12:00 38° WSW 09:13:28 72° NW 09:17:36 10° NE
STARLINK-74 3.5 09:12:09 39° WSW 09:13:30 71° NW 09:17:32 10° NE
STARLINK-1309 4.5 09:13:55 18° NNW 09:13:55 18° NNW 09:15:31 10° NNE
Okean 1 3.4 09:12:33 36° SW 09:13:48 50° W 09:17:40 10° N
STARLINK-1282 4.5 09:14:18 18° NNW 09:14:18 18° NNW 09:15:55 10° NNE
STARLINK-1280 4.5 09:14:44 18° NNW 09:14:44 18° NNW 09:16:23 10° NNE
STARLINK-1307 4.5 09:15:03 18° NNW 09:15:03 18° NNW 09:16:46 10° NNE
STARLINK-1278 4.5 09:15:06 18° NNW 09:15:06 18° NNW 09:16:45 10° NNE
STARLINK-39 3.5 09:13:45 37° WSW 09:15:10 69° NW 09:19:12 10° NE
STARLINK-1298 4.5 09:15:34 18° NNW 09:15:34 18° NNW 09:17:14 10° NNE
STARLINK-1290 4.5 09:15:36 18° NNW 09:15:36 18° NNW 09:17:16 10° NNE
STARLINK-1029 3.7 09:15:11 33° NW 09:15:37 35° NNW 09:18:33 10° NE
STARLINK-1293 4.5 09:15:54 18° NNW 09:15:54 18° NNW 09:17:34 10° NNE
PAYLOAD A 4.1 09:10:18 10° N 09:15:46 79° WNW 09:21:07 10° SSW
STARLINK-1297 4.5 09:16:04 18° NNW 09:16:04 18° NNW 09:17:45 10° NNE
STARLINK-1268 4.5 09:16:27 18° NNW 09:16:27 18° NNW 09:18:09 10° NNE
MSX 4.0 09:10:43 10° N 09:16:19 55° WNW 09:20:33 18° SW
STARLINK-1299 4.5 09:16:48 18° NNW 09:16:48 18° NNW 09:18:30 10° NNE
Cosmos 1937 Rocket 4.4 09:15:17 27° W 09:16:46 31° WNW 09:21:24 10° N
STARLINK-31 3.6 09:15:21 36° WSW 09:16:50 66° NW 09:20:51 10° NE
Cosmos 1975 2.8 09:14:11 10° N 09:18:12 86° E 09:22:13 10° S
STARLINK-1051 3.7 09:16:47 34° WSW 09:18:28 66° NW 09:22:35 10° NE
STARLINK-1311 4.5 09:18:32 17° NNW 09:18:32 17° NNW 09:20:22 10° NNE
STARLINK-69 3.7 09:17:10 34° W 09:18:41 59° NW 09:22:40 10° NE
Cosmos 2237 Rocket 2.2 09:13:33 10° NNW 09:19:15 88° ENE 09:24:57 10° SSE
STARLINK-21 3.7 09:18:34 33° WSW 09:20:11 62° NW 09:24:12 10° NE
SL-4 R/B 1.9 09:18:06 19° WNW 09:20:56 75° SW 09:25:16 10° SE
NOSS 3-2 (A) 3.5 09:16:55 13° SSW 09:21:53 72° ESE 09:28:11 10° NE
CZ-4B R/B 2.5 09:22:36 27° WNW 09:22:36 27° WNW 09:25:04 10° NW
STARLINK-45 3.8 09:20:24 31° W 09:22:04 55° NW 09:26:02 10° NE
STARLINK-70 3.8 09:21:53 30° W 09:23:37 55° NW 09:27:35 10° NE
STARLINK-76 3.8 09:23:19 29° WSW 09:25:08 56° NW 09:29:07 10° NE
STARLINK-23 3.8 09:24:55 28° W 09:26:49 55° NW 09:30:47 10° NE
Cosmos 1689 Rocket 2.2 09:24:08 10° S 09:27:01 48° W 09:29:57 10° NNW
ADEOS 3.6 09:21:57 10° N 09:27:08 64° WNW 09:32:16 10° SSW
Nadezhda 4 Rocket 4.4 09:21:14 10° S 09:27:27 69° E 09:33:45 10° NNE
STARLINK-1028 3.9 09:26:20 26° WSW 09:28:25 55° NW 09:32:30 10° NE
STARLINK-32 3.8 09:26:32 27° W 09:28:29 53° NW 09:32:27 10° NE
Cosmos 2279 Rocket 4.0 09:22:35 10° NNW 09:28:44 64° W 09:34:54 10° S
Cosmos 2298 Rocket 4.1 09:25:03 15° SSW 09:29:24 61° WNW 09:34:41 10° NNE
STARLINK-40 3.9 09:28:07 25° W 09:30:08 51° NW 09:34:05 10° NE
Cosmos 1300 Rocket 4.5 09:26:31 10° N 09:30:43 50° E 09:34:55 10° SSE
NOSS 0 Rocket 4.0 09:25:27 10° NW 09:31:23 52° WSW 09:37:18 10° S
STARLINK-44 3.9 09:29:42 24° W 09:31:47 50° NNW 09:35:43 10° NE
Cosmos 2150 Rocket 4.1 09:27:37 13° SSW 09:32:24 63° WNW 09:37:49 10° NNE
STARLINK-1007 4.0 09:30:19 23° W 09:32:38 50° NNW 09:36:44 10° NE
STARLINK-1021 4.0 09:31:07 23° W 09:33:24 51° NW 09:37:27 10° NE
STARLINK-37 4.1 09:31:26 23° W 09:33:35 46° NNW 09:37:29 10° NE
Cosmos 2219 3.5 09:29:51 17° SW 09:34:05 50° WNW 09:39:42 10° NNE
STARLINK-36 4.0 09:32:52 22° W 09:35:06 47° NNW 09:39:01 10° NE
STARLINK-68 4.2 09:34:42 21° W 09:36:59 43° NNW 09:40:51 10° NE
STARLINK-1019 4.1 09:35:54 21° W 09:38:24 47° NNW 09:42:25 10° NE
STARLINK-63 4.2 09:36:10 20° W 09:38:33 43° NNW 09:42:24 10° NE
Cosmos 2297 Rocket 2.3 09:33:42 12° SW 09:38:57 61° WNW 09:44:35 10° NNE
Meteor 2-9 Rocket 4.2 09:33:26 10° NNW 09:39:16 73° W 09:45:05 10° S
Cosmos 389 Rocket 2.4 09:36:11 10° S 09:39:48 88° WNW 09:43:24 10° N
STARLINK-35 4.1 09:37:39 20° W 09:40:06 44° NNW 09:43:58 10° NE
Cosmos 1484 Rocket 3.3 09:37:00 10° NNE 09:40:51 60° E 09:44:35 10° S
Cosmos 2180 Rocket 4.5 09:35:39 10° NNW 09:41:44 64° W 09:47:53 10° S
STARLINK-51 4.2 09:39:14 19° W 09:41:45 42° NNW 09:45:36 10° NE
Cosmos 1048 Rocket 4.1 09:36:28 10° NNW 09:41:49 86° ENE 09:47:11 10° SSE
Cosmos 372 Rocket 4.5 09:38:45 14° SW 09:42:54 41° WNW 09:47:52 10° N
STARLINK-30 4.2 09:40:49 18° W 09:43:24 41° NNW 09:47:14 10° NE
STARLINK-1012 4.2 09:40:42 18° W 09:43:25 43° NNW 09:47:23 10° NE
H-2A R/B 2.8 09:39:18 10° NNE 09:43:29 66° ESE 09:47:29 10° S
STARLINK-1031 4.3 09:40:44 10° SSW 09:44:44 52° SE 09:48:48 10° ENE
STARLINK-72 4.3 09:42:24 18° W 09:45:03 40° NNW 09:48:53 10° NE
CZ-4B R/B 3.3 09:41:18 10° NNE 09:45:28 74° ESE 09:49:49 10° S
STARLINK-1060 4.5 09:41:45 10° SSW 09:45:42 46° SE 09:49:41 10° ENE
Cosmos 1125 Rocket 3.5 09:40:34 10° SSW 09:45:52 82° WNW 09:51:13 10° NNE
STARLINK-50 4.3 09:44:01 17° W 09:46:45 39° NNW 09:50:33 10° NE
NOSS 3-2 (C) 3.7 09:42:03 10° SSW 09:47:38 69° ESE 09:53:56 10° NE
Spot 2 4.5 09:43:13 10° N 09:48:18 70° WNW 09:53:25 10° SSW
STARLINK-59 4.4 09:45:42 16° W 09:48:30 37° NNW 09:52:16 10° NE
STARLINK-56 4.4 09:47:12 15° W 09:50:04 37° NNW 09:53:51 10° NE
STARLINK-1030 4.3 09:46:38 10° SSW 09:50:39 51° SE 09:54:41 10° ENE
STARLINK-73 4.4 09:48:47 15° W 09:51:44 36° NNW 09:55:29 10° NE
CENTAUR R/B 3.0 09:46:10 10° SSW 09:51:47 61° ESE 09:58:23 10° NE
COSMOS 2428 4.0 09:49:22 10° WNW 09:53:04 18° W 09:56:45 10° SW
STARLINK-38 4.5 09:50:22 14° W 09:53:24 36° NNW 09:57:08 10° NE
STARLINK-1026 4.5 09:50:17 14° W 09:53:26 38° NNW 09:57:19 10° NE
STARLINK-1020 4.2 09:51:34 10° SW 09:55:37 57° SE 09:59:41 10° ENE
STARLINK-1052 4.0 09:56:32 10° SW 10:00:37 63° SE 10:04:42 10° ENE
Cosmos 1900 4.3 09:58:48 10° SW 10:03:40 77° WNW 10:08:33 10° NNE
Cosmos 2227 Rocket 2.6 09:58:41 10° SW 10:04:01 43° WNW 10:09:25 10° N
ATLAS CENTAUR R/B 1.3 10:06:15 12° WSW 10:07:46 30° NW 10:09:52 10° NNE
SeaSat 1 3.6 10:04:18 10° SSW 10:08:04 22° WSW 10:11:51 10° NW
Cosmos 2219 Rocket 3.8 10:06:27 10° WNW 10:08:07 11° W 10:09:48 10° WSW
Okean 1 Rocket 4.2 10:05:15 10° N 10:09:29 49° E 10:13:42 10° SSE
STARLINK-1033 3.8 10:06:24 10° SW 10:10:32 77° SE 10:14:40 10° NE
Cosmos 2221 Rocket 4.4 10:10:04 10° SW 10:14:04 32° WNW 10:18:05 10° NNW
PSLV R/B 4.1 10:10:50 10° NNE 10:14:58 82° ESE 10:19:04 10° S
Gblst 52 Del rocket 4.4 10:12:16 10° WNW 10:18:01 52° SW 10:23:22 10° SSE
